Flag for Canada Weather past 2 weeks in Rae-Edzo, Northwest Territories, Canada

Now
26 °F

Chilly.


Feels Like: 26 °F
Forecast: 18 / 41 °F
Wind: 2 mph from Southeast

Location: Lac La Martre

Current Time: Apr 18, 2015 at 2:49:31 AM

Latest Report: Apr 18, 2015 at 2:00 AM


Visibility: N/A

Pressure: 30.13 "Hg

Humidity: 82%

Dew point: 21 °F

Location of Rae-EdzoLocation

Historic Weather in Rae-Edzo — Graph

°F

Rae-Edzo temperature yesterday

Maximum temperature yesterday: 49 °F (at 7:00 PM)
Minimum temperature yesterday: 26 °F (at 6:00 AM)
Average temperature yesterday: 37 °F

Past Weeks' High & Low Weather Summary

 TemperatureHumidityPressure
High59 °F (Apr 10, 3:00 PM)100% (Apr 12, 5:00 AM)30.49 "Hg (Apr 12, 5:00 AM)
Low-29 °F (Apr 5, 7:00 AM)23% (Apr 10, 3:00 PM)28.99 "Hg (Apr 11, 2:00 PM)
Average21 °F64%29.82 "Hg
* Reported Apr 3 1:00 AM — Apr 18 1:00 AM, Rae-Edzo, Weather by CustomWeather, © 2015

Note: Actual official high and low records may vary slightly from our data, if they occured in-between our weather recording intervals... More about our weather records

Advertising

Rae-Edzo weather history for previous 24 hours

 ConditionsComfort  
Time TempWeatherWind HumidityBarometerVisibility
1:00 AM
Sat, Apr 18
29 °FChilly.2 mph84%30.11 "HgN/A
12:00 AM29 °FChilly.3 mph77%30.09 "HgN/A
11:00 PM
Fri, Apr 17
32 °FChilly.2 mph76%30.08 "HgN/A
10:00 PM35 °FChilly.5 mph60%30.06 "HgN/A
9:00 PM44 °FQuite cool.5 mph46%30.04 "HgN/A
8:00 PM46 °FCool.6 mph43%30.01 "HgN/A
7:00 PM49 °FCool.3 mph40%30.00 "HgN/A
6:00 PM49 °FCool.6 mph37%29.98 "HgN/A
5:00 PM49 °FCool.6 mph38%29.98 "HgN/A
4:00 PM48 °FCool.6 mph39%29.97 "HgN/A
3:00 PM47 °FCool.8 mph41%29.96 "HgN/A
2:00 PM46 °FCool.6 mph44%29.96 "HgN/A
1:00 PM43 °FQuite cool.5 mph49%29.95 "HgN/A
12:00 PM41 °FQuite cool.6 mph53%29.95 "HgN/A
11:00 AM37 °FChilly.7 mph60%29.95 "HgN/A
10:00 AM33 °FChilly.6 mph69%29.95 "HgN/A
9:00 AM31 °FChilly.6 mph75%29.95 "HgN/A
8:00 AM28 °FChilly.7 mph82%29.95 "HgN/A
7:00 AM28 °FChilly.7 mph81%29.94 "HgN/A
6:00 AM26 °FChilly.6 mph89%29.94 "HgN/A
5:00 AM27 °FChilly.6 mph86%29.94 "HgN/A
4:00 AM26 °FChilly.6 mph87%29.94 "HgN/A
3:00 AM29 °FChilly.3 mph80%29.94 "HgN/A
2:00 AM27 °FChilly.5 mph75%29.93 "HgN/A
Weather by CustomWeather, © 2015

See weather overviewHow to use our weather pages